Location: Brunsbüttel
(52.3892°N, 10.6138°E)
Time: 06:25:55
(UTC+00:00)

Okean O Rocket - Pass Details

Date: 19 May 2025
Orbit: 614 x 636 km, 98.0° (Epoch: 22 June)

Event Time Altitude Azimuth Distance (km) Brightness Sun altitude
Rises 19:57:46 0° 177° (S) 2,906 4.6 -6.0°
Reaches altitude 10° 20:00:00 10° 182° (S) 2,000 3.8 -6.3°
Maximum altitude 20:04:16 53° 260° (W) 771 2.3 -6.7°
Drops below altitude 10° 20:08:32 10° 337° (NNW) 2,003 5.5 -7.2°
Sets 20:10:47 0° 343° (NNW) 2,911 6.4 -7.4°
